NOAA 16 DEB

Satellite information

Favourite Embed

Satellite Type and Status

DEBRISIN ORBIT

Key statistics

Satellite NOAA 16 DEB at a glance.

Uptime

9158

Days in orbit

Revolutions

≈ 14.4

Per day

Orbit

SSO

Sun Synchronous Orbit

Inclination

98.8

Latest

Satellite identification and parameters

Extended collection of information and parameters for NOAA 16 DEB.

Object identification

Identified? True

Debris? True

Object name: NOAA 16 DEB

International designator: 2000-055QA

Object number (NORAD): 42334

Object ID (CCSDS): 42334

Country: UNITED STATES OF AMERICA (US)

Current information (Y/N): Y

RCS size: SMALL

Orbital parameters

Period: 100.288 minutes

Inclination: 98.8381 deg

SMA: 7150.345 km

Apoapsis: 782.453 km

Periapsis: 761.966 km

RAAN: 41.2267 deg

Eccentricy: 0.00143261

Argument of periapsis: 209.9145 deg

Mean anomaly: 150.1222 deg

Mean motion: 14.35860696 rev/day

Mean motion (dot): 0.00006492 rev/day2

B* drag term: 0.00225234 1/REarth

Two-line elements (TLE)

Creation date: Oct. 11, 2025, 10:47 a.m.

Reference frame: TEME

Reference center: EARTH

Epoch: Oct. 11, 2025, 12:45 a.m. UTC

TLE line 0: 0 NOAA 16 DEB

TLE line 1: 1 42334U 00055QA 25284.03151869 .00006492 00000-0 22523-2 0 9997

TLE line 2: 2 42334 98.8381 41.2267 0014326 209.9145 150.1222 14.35860696476045

Live tracking on map

Real-time ground track for satellite NOAA 16 DEB.

In-orbit conjunctions

A list of the most updated potential collisions computed for object NOAA 16 DEB.

Target Orbit TCA Probability of collision Miss distance Type
COSMOS 1741 LEO 2025-09-01 01:42:52 0.0001281114 321.0 (m) PAYLOAD
IRIDIUM 26 LEO 2025-05-27 21:43:41 0.0001275176 875.0 (m) PAYLOAD
COSMOS 2298 LEO 2025-02-15 05:44:56 0.0004528471 91.0 (m) PAYLOAD
CZ-6A DEB LEO 2025-01-08 00:16:06 0.0001620602 221.0 (m) DEBRIS
FENGYUN 1C DEB SSO 2024-09-28 11:37:51 0.0001811282 141.0 (m) DEBRIS

Associated space launch

The NOAA K, L and M POES satellites begin the fifth generation of improved environmental monitoring in support of NOAA missions. The instrument payload has significant improvements and additions/deletions. The instrument changes have effected the spacecraft subsystems and data formats.

NOAA 16 DEB was lifted into orbit during the mission ‘Titan II SLV | NOAA 16’, on board a Titan II SLV space rocket.

The launch took place on Sept. 21, 2000, 10:22 a.m. from Space Launch Complex 4W.

For more information about the launch, click the button.

Launch to space Titan II SLV | NOAA 16
Titan II SLV | NOAA 16

Agency: N/A

Status: Launch Successful

Launch date: Sept. 21, 2000, 10:22 a.m. UTC

Rocket: Titan II SLV

Launch pad: Space Launch Complex 4W

Location: Vandenberg SFB, CA, USA

...

Latest news about this satellite

There are no fresh news available about this satellite. Check back as we update our databases every day.


Newsletter sign-up

Weekly statistics, charts and insights to help you stay on top of the space industry.